Change the Weather History Date:

Tuesday, November 13, 2012

  Actual Average Record
Temperature  
Mean Temperature 70 °F -  
Max Temperature 81 °F 75 °F 93 °F (2007)
Min Temperature 59 °F 51 °F 44 °F (2000)
Cooling Degree Days 5    
Growing Degree Days 20 (Base 50)    
Moisture  
Dew Point 62 °F    
Average Humidity 84    
Maximum Humidity 100    
Minimum Humidity 50    
Precipitation  
Precipitation 0.00 in - - ()
Sea Level Pressure  
Sea Level Pressure 30.16 in    
Wind  
Wind Speed 1 mph (North)    
Max Wind Speed 7 mph    
Max Gust Speed -    
Visibility 8 miles    
Events      
Averages and records for this station are not official NWS values.
T = Trace of Precipitation, MM = Missing Value Source: NWS Daily Summary

Daily Weather History Graph

Daily Weather History Graph

Search for Another Location

Airport or City:

Trip Planner

Search our weather history database for the weather conditions in past years. The results will help you decide how hot, cold, wet, or windy it might be!

Date:

Astronomy

Nov. 13, 2012 Rise Set
Actual Time 6:51 AM EST 5:37 PM EST
Civil Twilight 6:26 AM EST 6:01 PM EST
Nautical Twilight 5:57 AM EST 6:30 PM EST
Astronomical Twilight 5:29 AM EST 6:58 PM EST
Moon 6:26 AM EST (11/13) 5:31 PM EST (11/13)
Length of Visible Light 11h 35m
Length of Day
10h 46m
Waning Crescent, 0% of the Moon is Illuminated
Nov 13
Waning Crescent
Nov 13
New
Nov 20
First Quarter
Nov 28
Full
Dec 6
Last Quarter

Hourly Weather History & Observations

Time (EST) Temp. Heat Index Dew Point Humidity Pressure Visibility Wind Dir Wind Speed Gust Speed Precip Events Conditions
12:53 AM 63.0 °F - 61.0 °F 93% 30.18 in 10.0 mi Calm Calm - N/A   Clear
1:53 AM 59.0 °F - 57.9 °F 96% 30.17 in 9.0 mi Calm Calm - N/A   Clear
2:00 AM 59.0 °F - 57.2 °F 94% 30.18 in 1.8 mi Calm Calm - N/A   Clear
2:09 AM 59.0 °F - 59.0 °F 100% 30.18 in 3.0 mi WNW 3.5 mph - N/A   Clear
2:53 AM 60.1 °F - 59.0 °F 96% 30.17 in 2.0 mi Calm Calm - N/A   Clear
2:55 AM 60.8 °F - 59.0 °F 94% 30.17 in 1.5 mi Calm Calm - N/A   Clear
3:06 AM 59.0 °F - 57.2 °F 94% 30.17 in 0.8 mi Calm Calm - N/A   Partly Cloudy
3:12 AM 60.8 °F - 57.2 °F 88% 30.17 in 2.0 mi Calm Calm - N/A   Scattered Clouds
3:20 AM 60.8 °F - 60.8 °F 100% 30.17 in 9.0 mi Calm Calm - N/A   Mostly Cloudy
3:53 AM 60.1 °F - 60.1 °F 100% 30.17 in 10.0 mi Calm Calm - N/A   Overcast
4:53 AM 62.1 °F - 61.0 °F 96% 30.16 in 10.0 mi Calm Calm - N/A   Partly Cloudy
5:53 AM 60.1 °F - 60.1 °F 100% 30.16 in 10.0 mi Calm Calm - N/A   Overcast
6:53 AM 62.1 °F - 61.0 °F 96% 30.17 in 9.0 mi Calm Calm - N/A   Scattered Clouds
7:53 AM 64.9 °F - 64.0 °F 97% 30.19 in 10.0 mi Calm Calm - N/A   Clear
8:53 AM 66.9 °F - 64.9 °F 93% 30.21 in 10.0 mi Calm Calm - N/A   Clear
9:53 AM 75.0 °F - 64.9 °F 71% 30.22 in 10.0 mi Calm Calm - N/A   Mostly Cloudy
10:53 AM 77.0 °F - 64.9 °F 66% 30.20 in 10.0 mi Calm Calm - N/A   Partly Cloudy
11:53 AM 79.0 °F - 64.0 °F 60% 30.18 in 10.0 mi North 4.6 mph - N/A   Partly Cloudy
12:53 PM 80.1 °F 80.9 °F 60.1 °F 50% 30.14 in 10.0 mi ENE 3.5 mph - N/A   Clear
1:53 PM 81.0 °F 81.7 °F 61.0 °F 50% 30.12 in 10.0 mi East 3.5 mph - N/A   Clear
2:53 PM 81.0 °F 81.7 °F 61.0 °F 50% 30.12 in 10.0 mi North 5.8 mph - N/A   Scattered Clouds
3:53 PM 80.1 °F 81.1 °F 61.0 °F 52% 30.12 in 10.0 mi Variable 4.6 mph - N/A   Partly Cloudy
4:53 PM 75.9 °F - 66.0 °F 71% 30.12 in 10.0 mi WNW 6.9 mph - N/A   Scattered Clouds
5:53 PM 72.0 °F - 64.9 °F 78% 30.12 in 10.0 mi WNW 5.8 mph - N/A   Clear
6:53 PM 71.1 °F - 64.9 °F 81% 30.13 in 10.0 mi NNW 3.5 mph - N/A   Clear
7:53 PM 66.9 °F - 64.0 °F 90% 30.15 in 10.0 mi NNW 3.5 mph - N/A   Clear
8:53 PM 66.9 °F - 64.0 °F 90% 30.15 in 10.0 mi Calm Calm - N/A   Overcast
9:53 PM 68.0 °F - 64.9 °F 90% 30.17 in 10.0 mi ENE 3.5 mph - N/A   Overcast
10:53 PM 66.9 °F - 64.0 °F 90% 30.17 in 10.0 mi North 3.5 mph - N/A   Mostly Cloudy
11:53 PM 64.9 °F - 63.0 °F 93% 30.16 in 10.0 mi Calm Calm - N/A   Partly Cloudy